Regional Weather Roundup
Issued by NWS

Home | Current Version | Previous Version | Graphics & Text | Print | Product List | Glossary On
Versions: 1 2 3 4 5 6 7 8 9 10 11 12 13 14 15 16 17 18 19 20 21 22 23 24 25 26 27 28 29 30 31 32 33 34 35 36 37 38 39 40 41 42 43 44 45 46 47 48 49 50
000
ASUS45 KPSR 300610
RWRAZ

ARIZONA REGIONAL HOURLY WEATHER ROUNDUP
NATIONAL WEATHER SERVICE PHOENIX AZ
1100 PM MST WED OCT 29 2014

NOTE: FAIR INDICATES FEW OR NO CLOUDS BELOW 12,000 FEET WITH NO
SIGNIFICANT WEATHER AND/OR OBSTRUCTIONS TO VISIBILITY.

AZZ001>003-036-300700-
NORTHWEST ARIZONA

CITY           SKY/WX    TMP DP  RH WIND       PRES   REMARKS
BULLHEAD CITY  CLEAR     73  32  21 CALM      30.01S
KINGMAN        CLEAR     53  26  35 SE7       30.15S
$$

AZZ004>008-015-016-018-300700-
NORTH CENTRAL ARIZONA

CITY           SKY/WX    TMP DP  RH WIND       PRES   REMARKS
GRAND CANYON   CLEAR     30  15  53 CALM      30.35S
6HR MIN TEMP:  30; 6HR MAX TEMP:  66;

PRESCOTT       CLEAR     51  33  50 S9        30.24S
6HR MIN TEMP:  49; 6HR MAX TEMP:  74;

FLAGSTAFF      PTCLDY    35  22  58 CALM      30.37R
6HR MIN TEMP:  35; 6HR MAX TEMP:  63;

PAYSON         CLEAR     61  27  27 E5        30.26S
PAGE           PTCLDY    54  21  27 CALM      30.24R
6HR MIN TEMP:  53; 6HR MAX TEMP:  69;

$$

AZZ009>014-017-300700-
NORTHEAST ARIZONA

CITY           SKY/WX    TMP DP  RH WIND       PRES   REMARKS
WINSLOW        PTCLDY    47  27  45 NE3       30.27R
6HR MIN TEMP:  44; 6HR MAX TEMP:  73;

SAINT JOHNS    CLEAR     50  28  42 S8        30.28S
6HR MIN TEMP:  48; 6HR MAX TEMP:  71;

WINDOW ROCK    CLEAR     36  13  38 CALM      30.36S
6HR MIN TEMP:  32; 6HR MAX TEMP:  67;

SHOW LOW       CLEAR     45  25  45 CALM      30.35S
$$

AZZ023-300700-
GREATER PHOENIX AREA

CITY           SKY/WX    TMP DP  RH WIND       PRES   REMARKS
PHOENIX        CLEAR     74  48  39 CALM      29.98S
6HR MIN TEMP:  74; 6HR MAX TEMP:  89;

BUCKEYE          N/A     64  39  39 N8        29.99S
LUKE AFB       CLEAR     68  42  39 N7        29.98S
6HR MIN TEMP:  67; 6HR MAX TEMP:  88;

DEER VALLEY    CLEAR     72  40  31 NE8       30.00S
6HR MIN TEMP:  72; 6HR MAX TEMP:  86;

SCOTTSDALE     CLEAR     72  42  34 CALM      30.01F
6HR MIN TEMP:  72; 6HR MAX TEMP:  87;

MESA-GATEWAY   CLEAR     68  45  42 CALM      30.02S
$$

AZZ027-028-300700-
SOUTHWEST MARICOPA COUNTY AND PINAL COUNTY

CITY           SKY/WX    TMP DP  RH WIND       PRES   REMARKS
CASA GRANDE    CLEAR     66  41  39 CALM      30.01F
6HR MIN TEMP:  66; 6HR MAX TEMP:  86;

$$

AZZ503-504-507>509-300700-
SOUTHEAST ARIZONA

CITY           SKY/WX    TMP DP  RH WIND       PRES   REMARKS
TUCSON         CLEAR     67  41  38 SE8       30.09S
6HR MIN TEMP:  67; 6HR MAX TEMP:  88;

DAVIS-MONTHAN  CLEAR     63  42  46 SE8       30.08R
6HR MIN TEMP:  63; 6HR MAX TEMP:  84;

NOGALES        CLEAR     55  39  54 E7        30.15S
6HR MIN TEMP:  55; 6HR MAX TEMP:  80;

SIERRA VISTA   CLEAR     61  36  39 SW3       30.20S
DOUGLAS        CLEAR     54  41  61 N9        30.16S
6HR MIN TEMP:  51; 6HR MAX TEMP:  79;

SAFFORD        CLEAR     58  38  47 N3        30.11S
6HR MIN TEMP:  57; 6HR MAX TEMP:  81;

$$

AZZ020-021-025-026-031-300700-
SOUTHWEST ARIZONA

CITY           SKY/WX    TMP DP  RH WIND       PRES   REMARKS
YUMA           PTCLDY    72  36  26 CALM      29.95S
6HR MIN TEMP:  72; 6HR MAX TEMP:  91;

$$

CAZ031-033-041-043-047-048-061-300700-
SOUTHERN CALIFORNIA

CITY           SKY/WX    TMP DP  RH WIND       PRES   REMARKS
DOWNTOWN L.A.  CLEAR     67  57  70 CALM      29.99R
6HR MIN TEMP:  66; 6HR MAX TEMP:  78;

L.A. AIRPORT   PTCLDY    68  62  83 CALM      30.00R
6HR MIN TEMP:  68; 6HR MAX TEMP:  71;

SAN DIEGO      PTCLDY    68  62  81 CALM      30.01S
6HR MIN TEMP:  68; 6HR MAX TEMP:  74;

BURBANK        CLEAR     68  54  60 E7        30.00R
6HR MIN TEMP:  68; 6HR MAX TEMP:  83;

ONTARIO        PTCLDY    69  48  47 CALM      30.01R
6HR MIN TEMP:  68; 6HR MAX TEMP:  87;

RIVERSIDE      CLEAR     66  52  60 CALM      30.01R
6HR MIN TEMP:  66; 6HR MAX TEMP:  85;

PALM SPRINGS   CLEAR     73  28  18 MISG      30.00S
6HR MIN TEMP:  72; 6HR MAX TEMP:  92;

EL CENTRO NAS  PTCLDY    67  28  23 W6        29.94F
6HR MIN TEMP:  66; 6HR MAX TEMP:  91;

IMPERIAL       CLEAR     64  41  42 CALM      29.94F
6HR MIN TEMP:  64; 6HR MAX TEMP:  88;

BLYTHE         CLEAR     68  26  20 CALM      29.97S
6HR MIN TEMP:  67; 6HR MAX TEMP:  90;

NEEDLES        CLEAR     71  19  14 SW8       30.01S
6HR MIN TEMP:  70; 6HR MAX TEMP:  89;

$$

NVZ020-UTZ003-300700-
SOUTHERN NEVADA-UTAH

CITY           SKY/WX    TMP DP  RH WIND       PRES   REMARKS
LAS VEGAS      CLEAR     65  18  16 SW8       30.05S
6HR MIN TEMP:  65; 6HR MAX TEMP:  81;

SALT LAKE CITY PTCLDY    48  30  49 SE5       30.25S
6HR MIN TEMP:  45; 6HR MAX TEMP:  62;

$$

NMZ009-TXZ055-300700-
NEW MEXICO-WEST TEXAS

CITY           SKY/WX    TMP DP  RH WIND       PRES   REMARKS
ALBUQUERQUE    CLEAR     59  14  17 NW6       30.26F
6HR MIN TEMP:  55; 6HR MAX TEMP:  71;

EL PASO        CLEAR     60  43  53 VRB5      30.17R
6HR MIN TEMP:  60; 6HR MAX TEMP:  77;

$$


........................KEY........................
SKY/WX - SKY CONDITION/WEATHER
TMP    - TEMPERATURE IN FAHRENHEIT
DP     - DEW POINT IN FAHRENHEIT
RH     - RELATIVE HUMIDITY IN PERCENT
WIND   - DIRECTION AND SPEED IN MILES PER HOUR (MPH)
VRB    - VARIABLE WIND DIRECTION
PRES   - MEAN SEA LEVEL PRESSURE IN INCHES OF MERCURY
         F - FALLING PRESSURE   R - RISING PRESSURE
         S - STEADY PRESSURE
VSB    - VISIBILITY IN MILES
HX     - HEAT INDEX IN FAHRENHEIT
WCI    - WIND CHILL INDEX IN FAHRENHEIT
TC     - TEMPERATURE IN CELSIUS WHICH IS ALSO KNOWN AS
         TEMPERATURE IN CENTIGRADE
AFB    - AIR FORCE BASE
         LUKE AFB IS LUKE AIR FORCE BASE
         DAVIS-MONTHAN IS DAVIS-MONTHAN AIR FORCE BASE
NAS    - NAVAL AIR STATION
         EL CENTRO NAS IS EL CENTRO NAVAL AIR STATION
N/A    - NOT AVAILABLE



USA.gov is the U.S. government's official web portal to all federal, state and local government web resources and services.